Overview Statistics Trail Chart Weather Telemetry Raw packets
 

This is the latest recevied weather packets stored in our database for station/object N5ATR. If no packets are shown the sender has not sent any weather packets the latest 10 day(s).

<< 101 102 103 104 105 106 107 >>
Time Temp. Humidity Pressure Rain* Wind** Luminosity Snow
1787931075 23.33° C 44% 1028.3 hPa 0 mm - 369 W/m² -
1787930775 23.89° C 43% 1028.6 hPa 0 mm - 353 W/m² -
1787930474 23.33° C 43% 1028.3 hPa 0 mm - 292 W/m² -
1787930169 23.33° C 45% 1028.3 hPa 0 mm - 320 W/m² -
1787929868 22.78° C 44% 1028.3 hPa 0 mm - 306 W/m² -
1787929564 22.78° C 46% 1028.4 hPa 0 mm - 308 W/m² -
1787929262 22.78° C 45% 1028.6 hPa 0 mm - 272 W/m² -
1787928961 22.78° C 48% 1028.4 hPa 0 mm - 258 W/m² -
1787928655 22.78° C 47% 1028.4 hPa 0 mm - 245 W/m² -
1787928354 22.78° C 45% 1028.6 hPa 0 mm - 228 W/m² -
1787928053 22.22° C 47% 1028.2 hPa 0 mm - 213 W/m² -
1787927756 22.22° C 47% 1028.2 hPa 0 mm - 197 W/m² -
1787927447 21.11° C 50% 1028.3 hPa 0 mm - 182 W/m² -
1787927143 20.56° C 53% 1028.2 hPa 0 mm - 161 W/m² -
1787926843 20° C 53% 1028.3 hPa 0 mm - 151 W/m² -
1787926543 20° C 53% 1027.9 hPa 0 mm - 47 W/m² -
1787926241 19.44° C 55% 1027.8 hPa 0 mm - 34 W/m² -
1787925937 18.89° C 55% 1027.9 hPa 0 mm - 34 W/m² -
1787925636 18.89° C 57% 1027.8 hPa 0 mm - 33 W/m² -
1787925331 18.89° C 58% 1027.9 hPa 0 mm - 30 W/m² -
1787925030 18.89° C 56% 1027.7 hPa 0 mm - 29 W/m² -
1787924725 18.33° C 54% 1028.2 hPa 0 mm - 28 W/m² -
1787924420 17.78° C 58% 1027.9 hPa 0 mm - 27 W/m² -
1787924115 17.22° C 61% 1028.1 hPa 0 mm - 26 W/m² -
1787923815 16.11° C 63% 1027.8 hPa 0 mm - 24 W/m² -

* Rain latest hour (hover to see other rain measurements)
** Current wind speed in m/s (hover to see current wind gust speed)